Regional Weather Roundup
Issued by NWS

Home | Current Version | Previous Version | Graphics & Text | Print | Product List | Glossary On
Versions: 1 2 3 4 5 6 7 8 9 10 11 12 13 14 15 16 17 18 19 20 21 22 23 24 25 26 27 28 29 30 31 32 33 34 35 36 37 38 39 40 41 42 43 44 45 46 47 48 49 50
000
ASUS45 KTFX 020504
RWRMT
MONTANA HOURLY WEATHER ROUNDUP
NATIONAL WEATHER SERVICE GREAT FALLS MT
1104 PM MDT WED APR 1 2015

NOTE: "FAIR" INDICATES FEW OR NO CLOUDS BELOW 12000 FEET WITH NO
SIGNIFICANT WEATHER AND/OR OBSTRUCTIONS TO VISIBILITY.

* THESE STATIONS ARE NOT UNDER NWS QUALITY CONTROL. THEY DO NOT
   REPORT WEATHER SUCH AS PRECIPITATION OR FOG.

MTZ001>007-043-020600-
WEST OF THE DIVIDE
CITY           SKY/WX    TMP DP  RH WIND       PRES   REMARKS
KALISPELL      PTCLDY    32  28  85 S8        30.04R WCI  25
MISSOULA       CLOUDY    34  28  79 S5        30.10S WCI  29
BUTTE          MOCLDY    28  16  61 NW3       30.01R
MULLAN PASS    CLOUDY    23  21  92 CALM      30.01S
* ESSEX        N/A       33  25  72 SW2        N/A
* LINCOLN      N/A       31  21  66 SW3G11     N/A
* LOOKOUT PASS N/A       29  27  92 S1         N/A
* POLSON       N/A       31  25  78 SE2        N/A
* RONAN APT    MOCLDY    36  27  70 N/A        N/A
* SEELEY LAKE  N/A       31  24  75 NW3        N/A
* THOMP F APT  MOCLDY    27   9  46 N7G15      N/A   WCI  19
$$

MTZ008-052>055-020600-
SOUTHWEST MONTANA
CITY           SKY/WX    TMP DP  RH WIND       PRES   REMARKS
BOZEMAN        PTCLDY    28  19  69 SW6       30.00F WCI  21
DILLON         PTCLDY    27  12  53 S9        30.01R WCI  18
* W YELLOWSTON MOCLDY    25  19  78 SW1        N/A
* THREE FORKS  PTCLDY    27  14  58 N/A        N/A
* TWIN BRIDGES PTCLDY    34   7  32 W5         N/A   WCI  29
* BOULDER HILL N/A       27  17  66 S7         N/A   WCI  19
* HOMESTAKE PS N/A       23  15  71 NW6        N/A   WCI  16
* MONIDA PASS  N/A       22  11  62 NW11       N/A   WCI  11
* RAYNOLDS PAS N/A       21   1  41 SE6G11     N/A   WCI  13
* WHITEHALL    N/A       31  17  56 NW5        N/A   WCI  26
* WISE RIVER   N/A       27  13  55 W11G18     N/A   WCI  17
$$

MTZ009>010-012-014-046-048-049-054-020600-
EAST SLOPES AND CENTRAL MONTANA
CITY           SKY/WX    TMP DP  RH WIND       PRES   REMARKS
CUT BANK       CLOUDY    30  27  89 N15       29.97R WCI  19
GREAT FALLS    MOCLDY    36  16  44 W13       29.93R WCI  27
HELENA         PTCLDY    37  21  52 W12       30.00S WCI  29
MALMSTROM AFB  MOCLDY    39  18  43 NW12      29.96R WCI  32
* DEARBORN     N/A       40  17  39 SE12G17    N/A   WCI  33
* EAST GLACIER N/A       29  25  85 E16        N/A   WCI  17
* MONARCH      N/A       32   9  38 W13G20     N/A   WCI  22
* PENDROY      N/A       31  23  72 N13G25     N/A   WCI  21
* ROGERS PASS  N/A       28  18  66 SE12G25    N/A   WCI  18
* SAINT MARY   N/A       31  16  54 N8G18      N/A   WCI  24
* SWEET GRASS  N/A       32  26  79 N23G34     N/A   WCI  19
$$

MTZ011-013-016-021-035-040-045-047-050-051-020600-
NORTH CENTRAL MONTANA
CITY           SKY/WX    TMP DP  RH WIND       PRES   REMARKS
HAVRE          MOCLDY    37  27  67 NW29G41   29.85R WCI  25
LEWISTOWN      CLOUDY    37  12  36 W20G29    29.89R WCI  27
* N BAR RANCH  MOCLDY    36   7  30 W12       29.86S WCI  28
* MALTA APT    PTCLDY    39  25  57 SW30G37    N/A   WCI  27
* CHESTER      N/A       34  25  70 NW16G29    N/A   WCI  24
* DENTON       N/A       39  14  36 NW24G31    N/A   WCI  28
* GEYSER       N/A       37  12  36 W23G32     N/A   WCI  26
* JUDITH GAP   N/A       32  12  43 SW14G19    N/A   WCI  22
* LOMA         N/A       39  26  60 NW17G22    N/A   WCI  30
$$

MTZ017>020-022>027-061-062-020600-
NORTHEAST MONTANA
CITY           SKY/WX    TMP DP  RH WIND       PRES   REMARKS
GLASGOW        PTCLDY    39  21  48 W26G37    29.72S WCI  28
GLENDIVE       CLEAR     34  23  64 W9        29.76S WCI  27
JORDAN         PTCLDY    36  18  48 NW16      29.79R WCI  26
SIDNEY         CLEAR     39  25  57 SW9       29.69F WCI  33
WOLF POINT     CLEAR     45  23  42 W17G28    29.70R
* BEAVER HILL  N/A       35  23  62 S13        N/A   WCI  26
* CIRCLE       N/A       43  22  43 SW11G16    N/A
* LINDSAY DVD  N/A       39  18  43 W18        N/A   WCI  30
* NAVAJO       N/A       37  22  55 W20        N/A   WCI  27
* SACO         N/A       38  24  57 SW24G34    N/A   WCI  27
$$

MTZ028>042-056>058-020600-
SOUTHCENTRAL AND SOUTHEAST MONTANA
CITY           SKY/WX    TMP DP  RH WIND       PRES   REMARKS
BAKER          CLEAR     37  18  46 W15       29.79S WCI  28
BILLINGS       PTCLDY    39  16  39 W25G32    29.89S WCI  28
LIVINGSTON     PTCLDY    32  18  56 SW10      29.96S WCI  24
MILES CITY     PTCLDY    37  10  33 SW7       29.81S WCI  32
* LAUREL APT   PTCLDY    39  12  33 N/A        N/A
* ROUNDUP APT  MOCLDY    39   9  29 SW14       N/A   WCI  31
* ALZADA       N/A       33  11  40 NW4        N/A
* HYSHAM       N/A       40  11  30 W7G13      N/A   WCI  35
* LAME DEER    N/A       37  11  34 SW12G18    N/A   WCI  29
* REED POINT   N/A       40  20  45 W15G26     N/A   WCI  32
* ROSCOE HILL  N/A       27  10  49 W4         N/A
$$

REGIONAL REPORTS...DAKOTAS
CITY           SKY/WX    TMP DP  RH WIND       PRES   REMARKS
WILLISTON      CLEAR     39  27  62 SW7       29.65F WCI  34
DICKINSON      CLEAR     36  21  54 SW14      29.72F WCI  27
CROSBY         FAIR      39  27  62 SW17G22   29.59F WCI  30
WATFORD CITY   CLEAR     36  25  64 SW12      29.66F WCI  28
BISMARCK       CLEAR     43  23  45 W14       29.72F
GRAND FORKS    CLEAR     43  32  65 W12       29.57S
FARGO          PTCLDY    45  30  56 W7        29.63R
BUFFALO SD     PTCLDY    32  16  52 W8        29.76S WCI  25
RAPID CITY     PTCLDY    36  14  40 W8        29.85F WCI  30
$$

REGIONAL REPORTS...WYOMING/IDAHO/WASHINGTON
CITY           SKY/WX    TMP DP  RH WIND       PRES   REMARKS
GILLETTE       PTCLDY    28  12  51 W10       29.90S WCI  19
SHERIDAN       PTCLDY    32  14  47 W7        29.91S WCI  25
CODY           PTCLDY    34  21  59 W7        29.95S WCI  28
YELLOWSTONE LA PTCLDY    19  12  74 VRB7      29.96F WCI  10
SALMON         MOCLDY    30  23  75 SE5       30.08S WCI  25
MULLAN PASS    CLOUDY    23  21  92 CALM      30.01S
SAND POINT     CLEAR     32  32 100 CALM      30.11S
SPOKANE        MOCLDY    36  30  79 SE6       30.10S WCI  31
$$

REGIONAL REPORTS...ALBERTA
CITY           SKY/WX    TMP DP  RH WIND       PRES   REMARKS
MEDICINE HAT   LGT SNOW  34  32  92 W24G31    29.87R WCI  22
$$

REGIONAL REPORTS...SASKATCHEWAN
CITY           SKY/WX    TMP DP  RH WIND       PRES   REMARKS
SWIFT CURRENT  LGT SNOW  30  30 100 NW26G39   29.57R WCI  16

$$




USA.gov is the U.S. government's official web portal to all federal, state and local government web resources and services.